Regional Weather Roundup
Issued by NWS

Home | Current Version | Previous Version | Graphics & Text | Print | Product List | Glossary Off
Versions: 1 2 3 4 5 6 7 8 9 10 11 12 13 14 15 16 17 18 19 20 21 22 23 24 25 26 27 28 29 30 31 32 33 34 35 36 37 38 39 40 41 42 43 44 45 46 47 48 49 50

000
ASUS43 KDTX 290910
RWRMI
MICHIGAN HOURLY REGIONAL WEATHER ROUNDUP
NATIONAL WEATHER SERVICE DETROIT/PONTIAC MI
500 AM EDT SAT AUG 29 2015

NOTE: "FAIR" INDICATES FEW OR NO CLOUDS BELOW 12,000 FEET WITH NO
SIGNIFICANT WEATHER AND/OR OBSTRUCTION TO VISIBILITY.

MIZ047>049-052>055-059>063-066>070-074>076-081>083-291000-
SOUTHEAST LOWER MICHIGAN

CITY           SKY/WX    TMP DP  RH WIND       PRES   REMARKS
ADRIAN         MOCLDY    60  58  92 CALM      30.13S
ALMA           RAIN      61  60  96 CALM      30.12S
ANN ARBOR      CLOUDY    59  58  96 CALM      30.12F FOG
BAD AXE        CLOUDY    63  60  90 SW5       30.14R
DETROIT CITY   CLOUDY    67  62  84 CALM      30.12F
DETROIT        CLOUDY    64  62  93 CALM      30.13S
FLINT          CLOUDY    66  61  84 N3        30.14S
GROSSE ILE     CLOUDY    70  64  83 S5        30.11S
HILLSDALE      MOCLDY    64  62  93 CALM      30.12F
HOWELL         CLOUDY    63  61  95 CALM      30.13S

CITY           SKY/WX    TMP DP  RH WIND       PRES   REMARKS
JACKSON        MOCLDY    62  58  86 CALM      30.12F
LAMBERTVILLE   MOCLDY    60  57  89 CALM      30.13S
LANSING        CLOUDY    63  61  93 E6        30.12F
LAPEER         NOT AVBL
MASON          MOCLDY    62  58  87 CALM      30.12F
MONROE         CLOUDY    62  60  93 CALM      30.12R
MT. CLEMENS    CLOUDY    63  61  94 N5        30.12S FOG
PONTIAC        CLOUDY    64  62  93 CALM      30.13F
PORT HOPE        N/A     63  60  90 SW6       30.10S
PORT HURON     LGT RAIN  59  59 100 CALM      30.14S
TRI CITIES     LGT RAIN  64  60  87 SW5       30.14S
YPSILANTI      CLOUDY    66  59  78 CALM      30.13S
$$
MIZ043>046-050>051-056>058-064>065-071>073-077>080-291000-
SOUTHWEST LOWER MICHIGAN

CITY           SKY/WX    TMP DP  RH WIND       PRES   REMARKS
BATTLE CREEK   CLOUDY    66  59  78 SE5       30.11F
BENTON HARBOR  CLOUDY    65  59  81 SE6       30.07F
BIG RAPIDS     RAIN      59  58  96 CALM      30.12F
COLDWATER      MOCLDY    63  59  88 SE5       30.11S
HOLLAND        CLOUDY    65  62  90 E6        30.10F
GRAND RAPIDS   CLOUDY    62  60  93 E5        30.12R
KALAMAZOO      CLOUDY    66  58  75 S3        30.10F
MARSHALL       MOCLDY    61  58  90 CALM      30.11S
MUSKEGON       LGT RAIN  62  58  86 E7        30.10S
$$
MIZ016>042-291000-
NORTHERN LOWER MICHIGAN

CITY           SKY/WX    TMP DP  RH WIND       PRES   REMARKS
ALPENA         LGT RAIN  62  60  93 SW3       30.10R
BEAVER ISLAND  CLOUDY    63  58  84 SW16G24   30.09R
BELLAIRE       DRIZZLE   63  60  91 CALM      30.12S
CADILLAC       RAIN      58  57  96 S5        30.13S
CHARLEVOIX     CLOUDY    63  61  93 W16G22    30.13S
FRANKFORT      LGT RAIN  59  57  92 W5        30.13S
GAYLORD        LGT RAIN  61  60  97 SW9       30.12S
GRAYLING       LGT RAIN  59  58  95 W5        30.14S
HARBOR SPRINGS LGT RAIN  62  60  93 W9G17     30.10R
HOUGHTON LAKE  LGT RAIN  60  57  89 W8        30.15R
MANISTEE       CLOUDY    61  55  82 CALM      30.13S
OSCODA         LGT RAIN  61  60  96 W5        30.11R
PELLSTON       LGT RAIN  62  60  93 W9        30.10R
TRAVERSE CITY  LGT RAIN  63  60  90 SW5       30.11S
$$
MIZ007>008-015-291000-
EASTERN UPPER MICHIGAN

CITY           SKY/WX    TMP DP  RH WIND       PRES   REMARKS
KINROSS        CLOUDY    63  63 100 SW10G17   30.05S
MACKINAC ISLAN LGT RAIN  63  60  93 W15G22    30.07F
NEWBERRY       CLOUDY    63  61  93 SW10G18   30.04F
S. S. MARIE    CLOUDY    64  62  93 W9        30.03S
$$
MIZ004>006-011>014-085-291000-
CENTRAL UPPER MICHIGAN

CITY           SKY/WX    TMP DP  RH WIND       PRES   REMARKS
MANISTIQUE     CLOUDY    63  58  84 SW6       30.06S
ESCANABA       PTCLDY    59  54  82 SW7       30.07S
MENOMINEE      MOCLDY    57  52  82 SW3       30.09R
SAWYER-GWINN   CLOUDY    62  58  87 SW10      30.06R
$$
MIZ001>003-009>011-084-291000-
WESTERN UPPER MICHIGAN

CITY           SKY/WX    TMP DP  RH WIND       PRES   REMARKS
IRON MOUNTAIN  CLOUDY    61  56  83 CALM      30.09R
HOUGHTON       LGT RAIN  63  58  83 W13       29.93F
COPPER HARBOR    N/A     64  59  83 CALM      29.94F
IRONWOOD       CLOUDY    57  55  94 SW5       30.06F
$$

ABBREVIATIONS USED IN REMARKS
   TC - TEMPERATURE IN CELSIUS
  WCI - WIND CHILL INDEX
   HX - HEAT INDEX
  VSB - VISIBILITY




USA.gov is the U.S. government's official web portal to all federal, state and local government web resources and services.